Location: Bon Acre
(42.6442°N, 73.5758°W)
Time: 09:50:51
(UTC+00:00)

Landsat 7 - Pass Details

Date: 14 December 2025
Orbit: 680 x 682 km, 97.9° (Epoch: 21 January)

Event Time Altitude Azimuth Distance (km) Brightness Sun altitude
Rises 22:46:20 0° 176° (S) 3,029 7.3 -15.0°
Reaches altitude 10° 22:48:35 10° 180° (S) 2,118 6.5 -15.4°
Maximum altitude 22:53:09 58° 259° (W) 800 4.4 -16.2°
Drops below altitude 10° 22:57:46 10° 339° (NNW) 2,134 6.4 -17.0°
Sets 23:00:03 0° 344° (NNW) 3,054 7.1 -17.4°
